Edinburgh Airport, United Kingdom

11:35 AM BST on June 23, 2017 (GMT +0100)
Edinburgh Airport

Weather History for EGPH - November, 2013

Change the Weather History Date:

Saturday, November 30, 2013

  Actual Average Record
Temperature  
Mean Temperature 39 °F -  
Max Temperature 46 °F 44 °F 57 °F (2001)
Min Temperature 32 °F 34 °F 21 °F (2008)
Degree Days  
Heating Degree Days 26    
Moisture  
Dew Point 37 °F    
Average Humidity 86    
Maximum Humidity 93    
Minimum Humidity 75    
Precipitation  
Precipitation 0.00 in 0.08 in - ()
Sea Level Pressure  
Sea Level Pressure 30.34 in    
Wind  
Wind Speed 8 mph ()    
Max Wind Speed 17 mph    
Max Gust Speed -    
Visibility 6.2 miles    
Events      
Averages and records for this station are not official NWS values.
T = Trace of Precipitation, MM = Missing Value Source: Averaged Metar Reports

Daily Weather History Graph

Daily Weather History Graph

Search for Another Location

Airport or City:

Trip Planner

Search our weather history database for the weather conditions in past years. The results will help you decide how hot, cold, wet, or windy it might be!

Date:

Astronomy

Nov. 30, 2013 Rise Set
Actual Time 8:18 AM GMT 3:45 PM GMT
Civil Twilight 7:33 AM GMT 4:30 PM GMT
Nautical Twilight 6:45 AM GMT 5:18 PM GMT
Astronomical Twilight 6:00 AM GMT 6:03 PM GMT
Moon 4:44 AM GMT (11/30) 2:24 PM GMT (11/30)
Length of Visible Light 8h 57m
Length of Day
7h 27m
Waning Crescent, 8% of the Moon is Illuminated
Nov 30
Waning Crescent
Dec 3
New
Dec 9
First Quarter
Dec 17
Full
Dec 25
Last Quarter

Hourly Weather History & Observations

Time (GMT) Temp. Windchill Dew Point Humidity Pressure Visibility Wind Dir Wind Speed Gust Speed Precip Events Conditions
12:20 AM 37.4 °F 30.8 °F 30.2 °F 75% 30.27 in - WSW 9.2 mph - N/A   Clear
12:50 AM 35.6 °F 29.9 °F 30.2 °F 81% 30.27 in - SSW 6.9 mph - N/A   Clear
1:20 AM 33.8 °F 28.6 °F 28.4 °F 81% 30.30 in - WSW 5.8 mph - N/A   Clear
1:50 AM 32.0 °F 24.8 °F 30.2 °F 93% 30.30 in - WSW 8.1 mph - N/A   Clear
2:20 AM 37.4 °F 32.1 °F 30.2 °F 75% 30.30 in - SSW 6.9 mph - N/A   Clear
2:50 AM 33.8 °F 27.7 °F 28.4 °F 81% 30.33 in 6.2 mi SSW 6.9 mph - N/A   Unknown
3:20 AM 35.6 °F 29.9 °F 30.2 °F 81% 30.33 in - WSW 6.9 mph - N/A   Clear
3:50 AM 37.4 °F 31.4 °F 32.0 °F 81% 30.33 in - West 8.1 mph - N/A   Clear
4:20 AM 35.6 °F 30.7 °F 32.0 °F 87% 30.33 in - West 5.8 mph - N/A   Clear
4:50 AM 35.6 °F 31.7 °F 30.2 °F 81% 30.33 in - West 4.6 mph - N/A   Clear
5:20 AM 33.8 °F 29.6 °F 30.2 °F 87% 30.33 in - WSW 4.6 mph - N/A   Clear
5:50 AM 33.8 °F 27.7 °F 30.2 °F 87% 30.33 in - WSW 6.9 mph - N/A   Clear
6:20 AM 35.6 °F 30.7 °F 32.0 °F 87% 30.36 in - WSW 5.8 mph - N/A   Clear
6:50 AM 33.8 °F 28.6 °F 32.0 °F 93% 30.36 in - WSW 5.8 mph - N/A   Clear
7:20 AM 33.8 °F 28.6 °F 32.0 °F 93% 30.36 in - WSW 5.8 mph - N/A   Clear
7:50 AM 33.8 °F 29.6 °F 32.0 °F 93% 30.36 in - WSW 4.6 mph - N/A   Clear
8:20 AM 33.8 °F 27.7 °F 32.0 °F 93% 30.39 in - West 6.9 mph - N/A   Clear
8:50 AM 35.6 °F 28.6 °F 33.8 °F 93% 30.36 in - WSW 9.2 mph - N/A   Clear
9:20 AM 37.4 °F 30.8 °F 33.8 °F 87% 30.36 in - WSW 9.2 mph - N/A   Clear
9:50 AM 39.2 °F 33.6 °F 33.8 °F 81% 30.36 in - WSW 8.1 mph - N/A   Clear
10:20 AM 39.2 °F 33.0 °F 33.8 °F 81% 30.36 in - West 9.2 mph - N/A   Clear
10:50 AM 39.2 °F 33.6 °F 35.6 °F 87% 30.36 in - WSW 8.1 mph - N/A   Clear
11:20 AM 39.2 °F 35.0 °F 35.6 °F 87% 30.36 in - WSW 5.8 mph - N/A   Clear
11:50 AM 41.0 °F 35.2 °F 35.6 °F 81% 30.36 in - WSW 9.2 mph - N/A   Clear
12:20 PM 41.0 °F 36.4 °F 35.6 °F 81% 30.36 in - WSW 6.9 mph - N/A   Clear
12:50 PM 42.8 °F 38.6 °F 37.4 °F 81% 30.33 in - WSW 6.9 mph - N/A   Clear
1:20 PM 42.8 °F 37.0 °F 39.2 °F 87% 30.33 in - WSW 10.4 mph - N/A   Clear
1:50 PM 44.6 °F 39.2 °F 39.2 °F 81% 30.33 in - West 10.4 mph - N/A   Clear
2:20 PM 44.6 °F 37.8 °F 39.2 °F 81% 30.33 in - SW 15.0 mph - N/A   Clear
2:50 PM 46.4 °F 40.4 °F 41.0 °F 81% 30.33 in - WSW 13.8 mph - N/A   Clear
3:20 PM 44.6 °F 38.4 °F 41.0 °F 87% 30.33 in 6.2 mi WSW 12.7 mph - N/A   Partly Cloudy
3:50 PM 44.6 °F 38.8 °F 41.0 °F 87% 30.33 in 6.2 mi SW 11.5 mph - N/A   Scattered Clouds
4:20 PM 46.4 °F 39.8 °F 41.0 °F 81% 30.33 in 6.2 mi WSW 16.1 mph - N/A   Mostly Cloudy
4:50 PM 46.4 °F 39.8 °F 42.8 °F 87% 30.33 in 6.2 mi SW 16.1 mph - N/A   Mostly Cloudy
5:20 PM 44.6 °F 38.8 °F 42.8 °F 93% 30.33 in 6.2 mi SW 11.5 mph - N/A   Mostly Cloudy
5:50 PM 44.6 °F 38.4 °F 41.0 °F 87% 30.33 in 6.2 mi WSW 12.7 mph - N/A   Partly Cloudy
6:20 PM 46.4 °F 41.9 °F 42.8 °F 87% 30.33 in 6.2 mi South 9.2 mph - N/A   Scattered Clouds
6:50 PM 44.6 °F 39.7 °F 41.0 °F 87% 30.36 in 6.2 mi SW 9.2 mph - N/A   Scattered Clouds
7:20 PM 44.6 °F 38.1 °F 42.8 °F 93% 30.33 in 6.2 mi WSW 13.8 mph - N/A   Scattered Clouds
7:50 PM 44.6 °F 38.1 °F 42.8 °F 93% 30.33 in 6.2 mi WSW 13.8 mph - N/A   Scattered Clouds
8:20 PM 46.4 °F 40.7 °F 42.8 °F 87% 30.33 in 6.2 mi WSW 12.7 mph - N/A   Scattered Clouds
8:50 PM 46.4 °F 40.7 °F 42.8 °F 87% 30.33 in 6.2 mi WSW 12.7 mph - N/A   Scattered Clouds
9:20 PM 46.4 °F 39.8 °F 42.8 °F 87% 30.33 in 6.2 mi WSW 16.1 mph - N/A   Mostly Cloudy
9:50 PM 46.4 °F 40.7 °F 42.8 °F 87% 30.33 in 6.2 mi WSW 12.7 mph - N/A   Overcast
10:20 PM 46.4 °F 39.8 °F 42.8 °F 87% 30.33 in 6.2 mi WSW 16.1 mph - N/A   Mostly Cloudy
10:50 PM 46.4 °F 39.5 °F 44.6 °F 93% 30.33 in 6.2 mi WSW 17.3 mph - N/A   Scattered Clouds
11:20 PM 46.4 °F 39.8 °F 44.6 °F 93% 30.33 in 6.2 mi WSW 16.1 mph - N/A   Scattered Clouds
11:50 PM 46.4 °F 40.1 °F 42.8 °F 87% 30.36 in 6.2 mi SW 15.0 mph - N/A   Scattered Clouds